Flag for U.S.A. Weather past 2 weeks in Detroit, Michigan, U.S.A.

Now
87 °F

Sunny.


Feels Like: 85 °F
Forecast: 66 / 85 °F
Wind: 21 mph from West

Location: Detroit City Airport

Current Time: Jul 31, 2015 at 6:16:15 PM

Latest Report: Jul 31, 2015 at 4:53 PM


Visibility: 10 mi

Pressure: 29.81 "Hg

Humidity: 29%

Dew point: 51 °F

Location of DetroitLocation

Historic Weather in Detroit — Graph

°F

Detroit temperature yesterday

Maximum temperature yesterday: 85 °F (at 2:53 PM)
Minimum temperature yesterday: 67 °F (at 5:53 AM)
Average temperature yesterday: 77 °F

Past Weeks' High & Low Weather Summary

 TemperatureHumidityPressure
High90 °F (Jul 19, 3:53 PM)93% (Jul 17, 7:53 AM)30.05 "Hg (Jul 17, 7:53 AM)
Low62 °F (Jul 22, 4:53 AM)29% (Jul 31, 4:53 PM)29.26 "Hg (Jul 19, 12:53 PM)
Average77 °F61%29.90 "Hg
* Reported Jul 16 4:53 PM — Jul 31 4:53 PM, Detroit, Weather by CustomWeather, © 2015

Note: Actual official high and low records may vary slightly from our data, if they occured in-between our weather recording intervals... More about our weather records

Advertising

Detroit weather history for previous 24 hours

 ConditionsComfort  
Time TempWeatherWind HumidityBarometerVisibility
4:53 PM
Fri, Jul 31
87 °FSunny.21 mph29%29.81 "Hg10 mi
3:53 PM85 °FSunny.15 mph36%29.82 "Hg10 mi
2:53 PM85 °FSunny.13 mph37%29.84 "Hg10 mi
1:53 PM85 °FSunny.12 mph36%29.86 "Hg10 mi
12:53 PM84 °FSunny.17 mph37%29.88 "Hg10 mi
11:53 AM84 °FSunny.12 mph38%29.90 "Hg10 mi
10:53 AM81 °FSunny.7 mph45%29.92 "Hg10 mi
9:53 AM79 °FSunny.9 mph47%29.93 "Hg10 mi
8:53 AM75 °FSunny.7 mph58%29.93 "Hg10 mi
7:53 AM70 °FSunny.7 mph66%29.93 "Hg10 mi
6:53 AM68 °FClear.6 mph68%29.93 "Hg10 mi
5:53 AM69 °FClear.7 mph66%29.93 "Hg10 mi
4:53 AM70 °FClear.7 mph64%29.93 "Hg10 mi
3:53 AM70 °FClear.7 mph64%29.93 "Hg10 mi
2:53 AM72 °FClear.7 mph59%29.93 "Hg10 mi
1:53 AM73 °FClear.7 mph57%29.94 "Hg10 mi
12:53 AM74 °FClear.7 mph56%29.94 "Hg10 mi
11:53 PM
Thu, Jul 30
75 °FClear.7 mph54%29.94 "Hg10 mi
10:53 PM77 °FClear.6 mph48%29.94 "Hg10 mi
9:53 PM79 °FSunny.7 mph44%29.93 "Hg10 mi
8:53 PM80 °FSunny.13 mph41%29.92 "Hg10 mi
7:53 PM83 °FSunny.9 mph36%29.91 "Hg10 mi
6:53 PM84 °FSunny.15 mph36%29.90 "Hg10 mi
Weather by CustomWeather, © 2015

See weather overviewHow to use our weather pages